This demonstration page uses our WeatherBlox Daily Observations layout. Learn more.

Left ArrowRight Arrow

47.50024, -111.30081

Hourly Observations for July 21, 2020

Temp ( °F °C ) Dew Point ( °F °C ) Humidity (%) Winds ( mph kmh ) Pressure ( in mb ) Visibility ( mi km ) Precip ( " mm )
12:53 am 00:53 Clear 60 15.6 45 7.2 58 58 ESE 6 9 30.00 1016 10 16 0.00 0.00
1:53 am 01:53 Clear 53 11.7 44 6.7 72 72 Calm 30.00 1016 10 16 0.00 0.00
2:53 am 02:53 Clear 56 13.3 46 7.8 70 70 E 5 7 29.98 1015 10 16 0.00 0.00
3:53 am 03:53 Clear 55 12.8 45 7.2 69 69 SSE 6 9 29.98 1015 10 16 0.00 0.00
4:53 am 04:53 Clear 51 10.6 44 6.7 77 77 SSW 7 11 29.98 1015 10 16 0.00 0.00
5:53 am 05:53 Sunny 52 11.1 46 7.8 80 80 SSW 8 13 29.97 1015 10 16 0.00 0.00
6:53 am 06:53 Mostly Cloudy 56 13.3 47 8.3 72 72 SSW 7 11 29.96 1014 10 16 0.00 0.00
7:53 am 07:53 Sunny 62 16.7 48 8.9 60 60 SSW 7 11 29.94 1014 10 16 0.00 0.00
8:53 am 08:53 Sunny 67 19.4 48 8.9 51 51 SSW 5 7 29.91 1013 10 16 0.00 0.00
9:53 am 09:53 Sunny 72 22.2 51 10.6 48 48 S 6 9 29.91 1013 10 16 0.00 0.00
10:53 am 10:53 Sunny 77 25 51 10.6 40 40 VRB 5 7 29.88 1012 10 16 0.00 0.00
11:53 am 11:53 Sunny 80 26.7 49 9.4 34 34 VRB 7 11 29.85 1011 10 16 0.00 0.00
12:53 pm 12:53 Sunny 83 28.3 48 8.9 30 30 SW 5 7 29.83 1010 10 16 0.00 0.00
1:53 pm 13:53 Sunny 86 30 48 8.9 27 27 SW 10 17 29.82 1010 10 16 0.00 0.00
2:53 pm 14:53 Mostly Sunny 87 30.6 47 8.3 25 25 undefined N/A 29.80 1009 10 16 0.00 0.00
3:53 pm 15:53 Mostly Cloudy 85 29.4 46 7.8 26 26 Calm 29.79 1009 10 16 0.00 0.00
4:53 pm 16:53 Sunny 89 31.7 48 8.9 24 24 NNE 7 11 29.78 1009 10 16 0.00 0.00
5:53 pm 17:53 Sunny 86 30 47 8.3 26 26 NNW 6 9 29.78 1008 10 16 0.00 0.00
6:53 pm 18:53 Sunny 87 30.6 46 7.8 24 24 NNW 5 7 29.76 1008 10 16 0.00 0.00
7:53 pm 19:53 Sunny 83 28.3 50 10 32 32 NNE 7 11 29.75 1008 10 16 0.00 0.00
8:53 pm 20:53 Sunny 75 23.9 48 8.9 39 39 NE 8 13 29.76 1008 10 16 0.00 0.00
9:53 pm 21:53 Clear 71 21.7 47 8.3 42 42 NE 8 13 29.78 1008 10 16 0.00 0.00
10:53 pm 22:53 Clear 68 20 46 7.8 45 45 NE 3 6 29.78 1009 10 16 0.00 0.00
11:53 pm 23:53 Clear 64 17.8 48 8.9 56 56 E 3 6 29.78 1008 10 16 0.00 0.00

Powered by AerisWeather